0 HST 1 20580U 90037B 25289.10108375 .00009869 00000-0 35424-3 0 9998 2 20580 28.4692 304.4849 0001823 318.0665 41.9790 15.26939273751171 0 ISS (ZARYA) 1 25544U 98067A 25289.20252440 .00012084 00000-0 22595-3 0 9996 2 25544 51.6331 67.3223 0004212 296.3293 63.7263 15.49149277533936 0 CXO 1 25867U 99040B 25291.08347916 .00000750 00000-0 00000-0 0 9999 2 25867 51.9999 124.5500 8232718 310.6504 0.1694 0.37810018 16408